Grants-Milan, NM

4:59 AM MDT on March 27, 2017 (GMT -0600)
Grants-Milan Municipal

Weather History for KGNT - April, 2013

Change the Weather History Date:

Saturday, April 13, 2013

  Actual Average Record
Temperature  
Mean Temperature 46 °F -  
Max Temperature 69 °F 65 °F 80 °F (2006)
Min Temperature 23 °F 28 °F 12 °F (1974)
Degree Days  
Heating Degree Days 19    
Moisture  
Dew Point 20 °F    
Average Humidity 37    
Maximum Humidity 78    
Minimum Humidity 12    
Precipitation  
Precipitation 0.00 in - - ()
Sea Level Pressure  
Sea Level Pressure 29.92 in    
Wind  
Wind Speed 7 mph (WNW)    
Max Wind Speed 24 mph    
Max Gust Speed 34 mph    
Visibility 10 miles    
Events      
Averages and records for this station are not official NWS values.
T = Trace of Precipitation, MM = Missing Value Source: NWS Daily Summary

Daily Weather History Graph

Daily Weather History Graph

Search for Another Location

Airport or City:

Trip Planner

Search our weather history database for the weather conditions in past years. The results will help you decide how hot, cold, wet, or windy it might be!

Date:

Astronomy

Apr. 13, 2013 Rise Set
Actual Time 6:41 AM MDT 7:42 PM MDT
Civil Twilight 6:15 AM MDT 8:09 PM MDT
Nautical Twilight 5:44 AM MDT 8:39 PM MDT
Astronomical Twilight 5:12 AM MDT 9:12 PM MDT
Moon 8:41 AM MDT (4/13) 11:02 PM MDT (4/13)
Length of Visible Light 13h 53m
Length of Day
13h 01m
Waxing Crescent, 11% of the Moon is Illuminated
Apr 13
Waxing Crescent
Apr 18
First Quarter
Apr 25
Full
May 2
Last Quarter
May 9
New

Hourly Weather History & Observations

Time (MDT) Temp. Windchill Dew Point Humidity Pressure Visibility Wind Dir Wind Speed Gust Speed Precip Events Conditions
12:15 AM 42.8 °F 40.1 °F 23.0 °F 46% 30.02 in 10.0 mi NW 4.6 mph - N/A   Scattered Clouds
12:35 AM 37.4 °F 33.8 °F 21.4 °F 52% 30.02 in 10.0 mi NW 4.6 mph - N/A   Clear
12:55 AM 39.6 °F - 22.1 °F 50% 30.01 in 10.0 mi Calm Calm - N/A   Clear
1:15 AM 34.3 °F 30.2 °F 19.6 °F 55% 30.01 in 10.0 mi NW 4.6 mph - N/A   Clear
1:35 AM 35.8 °F 30.9 °F 21.4 °F 56% 30.01 in 10.0 mi NW 5.8 mph - N/A   Clear
1:55 AM 34.9 °F 30.8 °F 21.2 °F 57% 30.01 in 10.0 mi WNW 4.6 mph - N/A   Clear
2:15 AM 36.3 °F 33.7 °F 21.4 °F 55% 30.01 in 10.0 mi WNW 3.5 mph - N/A   Clear
2:35 AM 36.0 °F 30.3 °F 21.6 °F 56% 30.00 in 10.0 mi NW 6.9 mph - N/A   Clear
2:55 AM 34.7 °F 30.6 °F 21.2 °F 58% 30.00 in 10.0 mi WNW 4.6 mph - N/A   Clear
3:15 AM 32.9 °F 27.5 °F 20.8 °F 61% 30.00 in 10.0 mi West 5.8 mph - N/A   Clear
3:35 AM 34.5 °F 31.6 °F 21.4 °F 59% 30.00 in 10.0 mi NW 3.5 mph - N/A   Clear
3:55 AM 31.5 °F - 20.5 °F 64% 30.00 in 10.0 mi Calm Calm - N/A   Clear
4:15 AM 31.3 °F - 21.0 °F 66% 29.99 in 10.0 mi Calm Calm - N/A   Clear
4:35 AM 29.5 °F - 20.7 °F 70% 29.99 in 10.0 mi Calm Calm - N/A   Clear
4:55 AM 28.4 °F 24.6 °F 19.8 °F 70% 29.99 in 10.0 mi NNW 3.5 mph - N/A   Clear
5:15 AM 27.1 °F 23.2 °F 18.0 °F 68% 30.00 in 10.0 mi NW 3.5 mph - N/A   Clear
5:35 AM 26.1 °F - 18.9 °F 74% 29.99 in 10.0 mi Calm Calm - N/A   Clear
5:55 AM 24.1 °F 19.7 °F 17.8 °F 77% 30.00 in 10.0 mi NW 3.5 mph - N/A   Clear
6:15 AM 23.4 °F 14.3 °F 17.4 °F 78% 30.00 in 10.0 mi NW 8.1 mph - N/A   Clear
6:35 AM 28.4 °F 19.7 °F 21.2 °F 74% 30.01 in 10.0 mi NW 9.2 mph - N/A   Clear
6:55 AM 25.3 °F 14.1 °F 19.2 °F 78% 30.01 in 10.0 mi NW 12.7 mph 17.3 mph N/A   Clear
7:15 AM 27.3 °F 22.0 °F 20.5 °F 75% 30.01 in 10.0 mi NNW 4.6 mph - N/A   Clear
7:35 AM 30.0 °F 21.7 °F 22.5 °F 73% 30.02 in 10.0 mi WNW 9.2 mph - N/A   Clear
7:55 AM 33.1 °F 30.0 °F 23.4 °F 67% 30.02 in 10.0 mi NNW 3.5 mph - N/A   Clear
8:15 AM 35.8 °F 30.9 °F 23.9 °F 62% 30.02 in 10.0 mi NNW 5.8 mph - N/A   Clear
8:35 AM 38.1 °F 33.7 °F 24.4 °F 58% 30.02 in 10.0 mi NNW 5.8 mph - N/A   Clear
8:55 AM 41.2 °F 38.2 °F 25.0 °F 53% 30.01 in 10.0 mi NNW 4.6 mph - N/A   Clear
9:15 AM 43.7 °F - 24.4 °F 47% 30.01 in 10.0 mi Calm Calm - N/A   Clear
9:35 AM 45.9 °F - 24.6 °F 43% 30.00 in 10.0 mi Calm Calm - N/A   Clear
9:55 AM 48.4 °F - 24.6 °F 39% 29.99 in 10.0 mi Calm Calm - N/A   Clear
10:15 AM 52.2 °F - 24.3 °F 34% 29.99 in 10.0 mi Calm Calm - N/A   Clear
10:35 AM 55.6 °F - 23.7 °F 29% 29.98 in 10.0 mi Calm Calm - N/A   Clear
10:55 AM 59.2 °F - 22.8 °F 25% 29.98 in 10.0 mi ESE 4.6 mph - N/A   Clear
11:15 AM 60.8 °F - 20.1 °F 21% 29.97 in 10.0 mi Calm Calm - N/A   Clear
11:35 AM 65.7 °F - 18.1 °F 16% 29.96 in 10.0 mi WNW 12.7 mph 20.7 mph N/A   Mostly Cloudy
11:55 AM 64.6 °F - 19.4 °F 18% 29.95 in 10.0 mi NW 11.5 mph 21.9 mph N/A   Scattered Clouds
12:15 PM 65.1 °F - 18.7 °F 17% 29.94 in 10.0 mi West 11.5 mph 21.9 mph N/A   Clear
12:35 PM 65.1 °F - 21.0 °F 19% 29.92 in 10.0 mi WNW 10.4 mph 23.0 mph N/A   Scattered Clouds
12:55 PM 64.4 °F - 20.3 °F 18% 29.91 in 10.0 mi West 16.1 mph 19.6 mph N/A   Scattered Clouds
1:15 PM 67.6 °F - 19.9 °F 16% 29.90 in 10.0 mi WNW 12.7 mph 27.6 mph N/A   Mostly Cloudy
1:35 PM 67.1 °F - 19.9 °F 17% 29.90 in 10.0 mi West 15.0 mph 31.1 mph N/A   Mostly Cloudy
1:55 PM 67.3 °F - 19.0 °F 16% 29.90 in 10.0 mi WNW 16.1 mph 33.4 mph N/A   Scattered Clouds
2:15 PM 68.5 °F - 19.9 °F 16% 29.89 in 10.0 mi West 15.0 mph 27.6 mph N/A   Scattered Clouds
2:35 PM 68.5 °F - 18.7 °F 15% 29.88 in 10.0 mi West 19.6 mph 25.3 mph N/A   Scattered Clouds
2:55 PM 68.9 °F - 18.9 °F 15% 29.87 in 10.0 mi West 13.8 mph 23.0 mph N/A   Scattered Clouds
3:15 PM 68.4 °F - 16.7 °F 14% 29.86 in 10.0 mi WNW 20.7 mph 33.4 mph N/A   Clear
3:35 PM 69.1 °F - 15.1 °F 13% 29.85 in 10.0 mi West 20.7 mph 27.6 mph N/A   Clear
3:55 PM 68.7 °F - 15.3 °F 13% 29.85 in 10.0 mi West 21.9 mph 29.9 mph N/A   Clear
4:15 PM 67.8 °F - 13.8 °F 12% 29.84 in 10.0 mi West 20.7 mph 31.1 mph N/A   Clear
4:35 PM 68.9 °F - 14.5 °F 12% 29.83 in 10.0 mi West 24.2 mph 27.6 mph N/A   Clear
4:55 PM 66.4 °F - 12.0 °F 12% 29.83 in 10.0 mi WSW 19.6 mph 29.9 mph N/A   Clear
5:15 PM 67.1 °F - 13.6 °F 13% 29.83 in 10.0 mi West 20.7 mph 31.1 mph N/A   Clear
5:35 PM 68.9 °F - 15.8 °F 13% 29.81 in 10.0 mi West 16.1 mph 25.3 mph N/A   Clear
5:55 PM 68.2 °F - 15.6 °F 13% 29.80 in 10.0 mi WSW 18.4 mph 32.2 mph N/A   Clear
6:15 PM 65.5 °F - 13.1 °F 13% 29.81 in 10.0 mi West 23.0 mph 34.5 mph N/A   Clear
6:35 PM 66.6 °F - 13.6 °F 13% 29.80 in 10.0 mi WNW 20.7 mph 32.2 mph N/A   Clear
6:55 PM 65.3 °F - 14.2 °F 14% 29.80 in 10.0 mi West 12.7 mph 20.7 mph N/A   Clear
7:15 PM 64.4 °F - 14.7 °F 15% 29.80 in 10.0 mi West 13.8 mph 24.2 mph N/A   Clear
7:35 PM 62.8 °F - 15.4 °F 16% 29.80 in 10.0 mi West 12.7 mph 18.4 mph N/A   Clear
7:55 PM 61.7 °F - 17.4 °F 18% 29.80 in 10.0 mi West 4.6 mph - N/A   Clear
8:15 PM 61.2 °F - 18.9 °F 20% 29.80 in 10.0 mi West 6.9 mph 16.1 mph N/A   Clear
8:55 PM 60.4 °F - 19.6 °F 21% 29.80 in 10.0 mi West 17.3 mph 28.8 mph N/A   Clear
9:15 PM 59.7 °F - 21.0 °F 22% 29.81 in 10.0 mi West 17.3 mph 24.2 mph N/A   Clear
9:35 PM 59.2 °F - 21.7 °F 24% 29.83 in 10.0 mi West 13.8 mph 24.2 mph N/A   Clear
9:55 PM 58.1 °F - 21.2 °F 24% 29.83 in 10.0 mi WSW 8.1 mph - N/A   Clear
10:15 PM 57.7 °F - 21.2 °F 24% 29.81 in 10.0 mi WNW 3.5 mph - N/A   Clear
10:35 PM 57.7 °F - 21.6 °F 25% 29.81 in 10.0 mi South 4.6 mph - N/A   Clear
10:55 PM 57.2 °F - 21.7 °F 25% 29.81 in 10.0 mi West 10.4 mph - N/A   Clear
11:15 PM 57.4 °F - 21.9 °F 25% 29.82 in 10.0 mi SW 4.6 mph - N/A   Clear
11:35 PM 56.1 °F - 21.9 °F 27% 29.80 in 10.0 mi SW 10.4 mph 17.3 mph N/A   Clear
11:55 PM 55.2 °F - 21.9 °F 27% 29.80 in 10.0 mi NNW 9.2 mph 19.6 mph N/A   Clear